Regional Weather Roundup
Issued by NWS Mobile, AL

Home | Current Version | Previous Version | Text Only | Print | Product List | Glossary On
Versions: 1 2 3 4 5 6 7 8 9 10 11 12 13 14 15 16 17 18 19 20 21 22 23 24 25 26 27 28 29 30 31 32 33 34 35 36 37 38 39 40 41 42 43 44 45 46 47 48 49 50
860
ASUS44 KMOB 231712
RWRMOB
REGIONAL WEATHER ROUNDUP
NATIONAL WEATHER SERVICE MOBILE AL
1200 PM CDT THU MAR 23 2017

NOTE: "FAIR" INDICATES FEW OR NO CLOUDS BELOW 12,000 FEET WITH NO
      SIGNIFICANT WEATHER AND/OR OBSTRUCTIONS TO VISIBILITY.

  * THESE STATIONS ARE PART OF THE UNIVERSITY OF SOUTH ALABAMA
    MESONET AND ARE NOT UNDER NWS OR FAA QUALITY CONTROL.

ALZ061>064-231800-
COASTAL ALABAMA

CITY           SKY/WX    TMP DP  RH WIND       PRES   REMARKS
MOBILE REG APT SUNNY     76  54  46 S10       30.26F
BROOKLEY FIELD SUNNY     74  56  53 VRB5      30.28S
USA CAMPUS*      N/A     75  55  50 SE5       30.26F
DOG RIVER*     NOT AVBL


CITY           SKY/WX    TMP DP  RH WIND       PRES   REMARKS
GULF SHORES    CLOUDY    73  65  78 E12G21    30.27S

$$

ALZ051>060-231800-
INTERIOR SOUTHWEST AND SOUTH CENTRAL ALABAMA

CITY           SKY/WX    TMP DP  RH WIND       PRES   REMARKS
GREENVILLE     SUNNY     74  55  51 E10G17    30.29F
EVERGREEN      SUNNY     75  57  53 S6        30.28F
ATMORE*          N/A     75  57  53 S9        30.28F
ANDALUSIA/OPP  SUNNY     78  57  48 E10G18    30.29F
ANDALUSIA*       N/A     73  57  56 SE6       30.29F
FLORALA APT    MOSUNNY   74  58  57 SE10G17   30.31S
FLORALA*         N/A     73  59  60 NE5       31.08F

$$

FLZ001>006-231800-
WESTERN FLORIDA PANHANDLE

CITY           SKY/WX    TMP DP  RH WIND       PRES   REMARKS
PENSACOLA      PTSUNNY   71  59  65 SE13      30.28S
NAS PENSACOLA  CLOUDY    70  60  70 E14       30.27S
MILTON         MOSUNNY   77  60  55 SE10G21   30.27F
WHTNG S FIELD  MOSUNNY   79  61  53 SE12G18   30.27F


CITY           SKY/WX    TMP DP  RH WIND       PRES   REMARKS
JAY*             N/A     77  55  47 SE5       30.26F
DUKE FIELD     PTSUNNY   76  59  55 S8        30.26F
CRESTVIEW      SUNNY     78  58  49 MISG      30.29S
VALPARAISO     PTSUNNY   73  60  64 SE7       30.29R
DESTIN         CLOUDY    73  63  70 SE7       30.29R

$$

MSZ076-079-231800-
INTERIOR SOUTHEAST MISSISSIPPI

CITY           SKY/WX    TMP DP  RH WIND       PRES   REMARKS
LEAKESVILLE*     N/A     75  55  50 CALM      30.24F
AGRICOLA*        N/A     79  55  44 CALM      30.24F

$$

MARINE OBSERVATIONS

STATION/POSITION TIME  TEMP    WIND        PRES    WAVE
                       AIR SEA DIR/SP/G            HT/PER
                 (UTC) (F)     (DEG/KT/KT) (MB)    (FT/S)
PASCAGOULA       1648   71     110/ 14/ 18 1024.1F
PETIT BOIS ISLND 1648   71      90/ 13/ 17 1025.0F
GRAND BAY        1545   69     100/ 11     1025.0S
KATRINA CUT      1630          110/ 15     1024.7R
CEDAR POINT      1630   70     120/ 11     1024.7S
E DAUPHIN ISLAND 1600   69     100/ 13/ 15 1024.4R
USCG MOBILE BAY  1648   71 68  170/  1/  3 1025.5F
STATE DOCKS      1648   72 64              1024.8F
MEAHER PARK      1630   72     150/  5     1024.4F
WEEKS BAY        1545   74                   N/A
FORT MORGAN      1648   70     100/ 15/ 18   N/A
12 S ORANGE BCH  1650   69 69  100/ 14/ 17 1024.5S   3/ 5
PENSACOLA BAY    1648   70 69  100/  2/  5 1025.6S
64 S DAUPHIN ISL 1650   71 73   80/ 12/ 14 1023.5F   3/ 4
67 S FORT MORGAN 1630   76      80/ 12     1023.0F

$$

SELECTED LOCATIONS ACROSS THE REGION

CITY           SKY/WX    TMP DP  RH WIND       PRES   REMARKS
NEW ORLEANS    MOSUNNY   80  60  50 SE13      30.21F
GULFPORT       SUNNY     74  60  61 E16       30.24F
PASCAGOULA AP  SUNNY     75  60  59 SE10G21   30.25F
PASCAGOULA*    NOT AVBL
HATTIESBURG    SUNNY     76  52  43 SE6       30.25F
LAUREL         SUNNY     75  52  43 SE8       30.26F
MERIDIAN       SUNNY     76  51  41 S6        30.26F
JACKSON        SUNNY     77  50  38 S6        30.22F
MONTGOMERY     SUNNY     74  53  48 SE14      30.32F
TROY           PTSUNNY   71  56  58 SE14G20   30.33S
ASHFORD*         N/A     73  57  56 SE6       30.29F
DOTHAN         CLOUDY    69  56  62 E10       30.36S
PANAMA CITY    PTSUNNY   76  60  57 NE8       30.27S

$$





USA.gov is the U.S. government's official web portal to all federal, state and local government web resources and services.